TimeEDT,TemperatureF,Dew PointF,Humidity,Sea Level PressureIn,VisibilityMPH,Wind Direction,Wind SpeedMPH,Gust SpeedMPH,PrecipitationIn,Events,Conditions,WindDirDegrees,DateUTC
12:15 AM,69.8,66.2,88,29.71,7.0,Calm,Calm,-,N/A,,Scattered Clouds,0,2013-09-13 04:15:00
12:35 AM,69.8,66.2,88,29.71,5.0,Calm,Calm,-,N/A,,Mostly Cloudy,0,2013-09-13 04:35:00
12:55 AM,69.8,66.2,88,29.70,5.0,Calm,Calm,-,N/A,,Overcast,0,2013-09-13 04:55:00
1:15 AM,69.8,66.2,88,29.70,4.0,Calm,Calm,-,N/A,,Overcast,0,2013-09-13 05:15:00
1:35 AM,69.8,66.2,88,29.69,4.0,Calm,Calm,-,N/A,,Overcast,0,2013-09-13 05:35:00
1:55 AM,69.8,66.2,88,29.68,10.0,WNW,3.5,-,N/A,,Overcast,300,2013-09-13 05:55:00
2:15 AM,69.8,66.2,88,29.68,7.0,NW,5.8,-,N/A,Rain,Light Rain,310,2013-09-13 06:15:00
2:35 AM,69.8,66.2,88,29.67,10.0,NNW,4.6,-,N/A,Rain,Light Rain,330,2013-09-13 06:35:00
2:55 AM,69.8,64.4,83,29.65,10.0,NE,3.5,-,N/A,,Light Drizzle,40,2013-09-13 06:55:00
3:15 AM,69.8,66.2,88,29.66,10.0,West,3.5,-,0.01,Rain,Rain,270,2013-09-13 07:15:00
3:35 AM,68.0,66.2,94,29.66,5.0,Calm,Calm,-,0.03,Rain,Light Rain,0,2013-09-13 07:35:00
3:55 AM,68.0,66.2,94,29.66,5.0,Calm,Calm,-,N/A,,Overcast,0,2013-09-13 07:55:00
4:15 AM,68.0,66.2,94,29.67,5.0,Calm,Calm,-,N/A,,Overcast,0,2013-09-13 08:15:00
4:35 AM,68.0,66.2,94,29.67,7.0,Calm,Calm,-,N/A,,Overcast,0,2013-09-13 08:35:00
4:55 AM,68.0,64.4,88,29.66,7.0,Calm,Calm,-,N/A,,Overcast,0,2013-09-13 08:55:00
5:15 AM,68.0,64.4,88,29.66,7.0,Calm,Calm,-,N/A,,Mostly Cloudy,0,2013-09-13 09:15:00
5:35 AM,66.2,64.4,94,29.66,5.0,Calm,Calm,-,N/A,,Scattered Clouds,0,2013-09-13 09:35:00
5:55 AM,66.2,64.4,94,29.67,3.0,Calm,Calm,-,N/A,,Clear,0,2013-09-13 09:55:00
6:15 AM,66.2,62.6,88,29.67,2.0,Calm,Calm,-,N/A,,Clear,0,2013-09-13 10:15:00
6:35 AM,66.2,62.6,88,29.69,5.0,Calm,Calm,-,N/A,,Scattered Clouds,0,2013-09-13 10:35:00
6:45 AM,66.2,62.6,88,29.69,10.0,NNW,3.5,-,N/A,,Mostly Cloudy,340,2013-09-13 10:45:00
7:45 AM,66.2,62.6,88,29.69,10.0,Calm,Calm,-,N/A,,Mostly Cloudy,0,2013-09-13 11:45:00
8:45 AM,66.2,60.8,83,29.69,10.0,Calm,Calm,-,N/A,,Mostly Cloudy,0,2013-09-13 12:45:00
9:45 AM,69.8,60.8,73,29.69,10.0,NW,6.9,12.7,N/A,,Mostly Cloudy,310,2013-09-13 13:45:00
10:45 AM,66.2,59.0,78,29.71,10.0,NW,5.8,-,N/A,,Mostly Cloudy,320,2013-09-13 14:45:00
11:45 AM,68.0,59.0,73,29.72,10.0,NW,6.9,-,N/A,,Overcast,320,2013-09-13 15:45:00
12:45 PM,71.6,59.0,64,29.70,10.0,WNW,9.2,-,N/A,,Mostly Cloudy,300,2013-09-13 16:45:00
1:45 PM,73.4,59.0,61,29.69,10.0,North,10.4,-,N/A,,Scattered Clouds,350,2013-09-13 17:45:00
2:45 PM,73.4,57.2,57,29.69,10.0,NW,11.5,21.9,N/A,,Mostly Cloudy,320,2013-09-13 18:45:00
3:45 PM,73.4,55.4,53,29.70,10.0,NNW,12.7,24.2,N/A,,Scattered Clouds,330,2013-09-13 19:45:00
4:45 PM,71.6,53.6,53,29.72,10.0,NNW,13.8,-,N/A,,Scattered Clouds,330,2013-09-13 20:45:00
5:45 PM,68.0,53.6,60,29.75,10.0,North,5.8,19.6,N/A,,Scattered Clouds,360,2013-09-13 21:45:00
6:45 PM,66.2,53.6,64,29.76,10.0,North,6.9,15.0,N/A,,Scattered Clouds,360,2013-09-13 22:45:00
7:45 PM,62.6,53.6,72,29.80,10.0,NNE,6.9,-,N/A,,Scattered Clouds,20,2013-09-13 23:45:00
8:50 PM,60.8,50.0,68,29.85,10.0,North,8.1,18.4,N/A,,Clear,350,2013-09-14 00:50:00
9:45 PM,59.0,50.0,72,29.87,10.0,NNW,6.9,-,N/A,,Clear,330,2013-09-14 01:45:00
10:55 PM,60.8,48.2,63,29.87,10.0,NNW,10.4,18.4,N/A,,Clear,330,2013-09-14 02:55:00
11:15 PM,60.8,48.2,63,29.87,10.0,NNW,8.1,-,N/A,,Clear,330,2013-09-14 03:15:00
11:35 PM,59.0,48.2,67,29.87,10.0,NNW,6.9,-,N/A,,Clear,340,2013-09-14 03:35:00
11:55 PM,59.0,48.2,67,29.88,10.0,North,3.5,-,N/A,,Clear,350,2013-09-14 03:55:00